Time,TemperatureF,DewpointF,PressureIn,WindDirection,WindDirectionDegrees,WindSpeedMPH,WindSpeedGustMPH,Humidity,HourlyPrecipIn,Conditions,Clouds,dailyrainin,SolarRadiationWatts/m^2,SoftwareType,DateUTC
2013-04-10 00:05:00,66.6,61.6,29.75,SE,133,6.0,7.0,84,0.00,,,0.00,0,Wunderground v.1.15,2013-04-10 05:05:00,
2013-04-10 00:10:00,66.5,61.5,29.75,SE,133,6.0,6.0,84,0.00,,,0.00,0,Wunderground v.1.15,2013-04-10 05:10:00,
2013-04-10 00:15:00,66.4,61.4,29.75,SE,133,5.0,6.0,84,0.00,,,0.00,0,Wunderground v.1.15,2013-04-10 05:15:00,
2013-04-10 00:20:00,66.3,61.3,29.75,SE,133,5.0,6.0,84,0.00,,,0.00,0,Wunderground v.1.15,2013-04-10 05:20:00,
2013-04-10 00:25:00,66.2,61.2,29.74,SE,133,5.0,6.0,84,0.00,,,0.00,0,Wunderground v.1.15,2013-04-10 05:25:00,
2013-04-10 00:30:00,66.1,61.1,29.74,SE,133,5.0,5.0,84,0.00,,,0.00,0,Wunderground v.1.15,2013-04-10 05:30:00,
2013-04-10 00:35:00,66.0,61.0,29.74,SE,133,4.0,5.0,84,0.00,,,0.00,0,Wunderground v.1.15,2013-04-10 05:35:00,
2013-04-10 00:40:00,65.9,61.3,29.75,SE,133,4.0,4.0,85,0.00,,,0.00,0,Wunderground v.1.15,2013-04-10 05:40:00,
2013-04-10 00:45:00,65.8,61.2,29.75,SE,133,4.0,4.0,85,0.00,,,0.00,0,Wunderground v.1.15,2013-04-10 05:45:00,
2013-04-10 00:50:00,65.8,61.2,29.76,SE,133,4.0,4.0,85,0.00,,,0.00,0,Wunderground v.1.15,2013-04-10 05:50:00,
2013-04-10 00:55:00,65.8,61.2,29.76,SE,133,3.0,4.0,85,0.00,,,0.00,0,Wunderground v.1.15,2013-04-10 05:55:00,
2013-04-10 01:00:00,65.7,61.1,29.75,SE,133,3.0,3.0,85,0.00,,,0.00,0,Wunderground v.1.15,2013-04-10 06:00:00,
2013-04-10 01:10:00,65.0,60.4,29.75,SE,133,1.0,1.0,85,0.00,,,0.00,0,Wunderground v.1.15,2013-04-10 06:10:00,
2013-04-10 01:15:00,64.8,60.5,29.75,SE,133,0.0,1.0,86,0.00,,,0.00,0,Wunderground v.1.15,2013-04-10 06:15:00,
2013-04-10 01:20:00,64.5,60.2,29.76,SE,133,0.0,0.0,86,0.00,,,0.00,0,Wunderground v.1.15,2013-04-10 06:20:00,
2013-04-10 01:25:00,64.0,59.7,29.75,SE,133,0.0,2.0,86,0.00,,,0.00,0,Wunderground v.1.15,2013-04-10 06:25:00,
2013-04-10 01:30:00,63.5,59.6,29.75,SE,133,1.0,2.0,87,0.00,,,0.00,0,Wunderground v.1.15,2013-04-10 06:30:00,
2013-04-10 01:35:00,63.1,59.2,29.74,SE,133,2.0,2.0,87,0.00,,,0.00,0,Wunderground v.1.15,2013-04-10 06:35:00,
2013-04-10 01:45:00,62.7,59.4,29.74,SE,133,2.0,3.0,89,0.00,,,0.00,0,Wunderground v.1.15,2013-04-10 06:45:00,
2013-04-10 01:50:00,62.8,59.5,29.73,SE,133,3.0,3.0,89,0.00,,,0.00,0,Wunderground v.1.15,2013-04-10 06:50:00,
2013-04-10 01:55:00,62.7,59.1,29.73,SE,133,3.0,3.0,88,0.00,,,0.00,0,Wunderground v.1.15,2013-04-10 06:55:00,
2013-04-10 02:00:00,62.3,59.0,29.73,SE,133,3.0,5.0,89,0.00,,,0.00,0,Wunderground v.1.15,2013-04-10 07:00:00,
2013-04-10 02:05:00,62.0,58.7,29.73,SE,133,3.0,5.0,89,0.00,,,0.00,0,Wunderground v.1.15,2013-04-10 07:05:00,
2013-04-10 02:10:00,61.8,58.8,29.74,SE,133,3.0,3.0,90,0.00,,,0.00,0,Wunderground v.1.15,2013-04-10 07:10:00,
2013-04-10 02:20:00,61.7,59.0,29.74,SE,133,3.0,3.0,91,0.00,,,0.00,0,Wunderground v.1.15,2013-04-10 07:20:00,
2013-04-10 02:25:00,61.7,59.0,29.74,SE,133,2.0,3.0,91,0.00,,,0.00,0,Wunderground v.1.15,2013-04-10 07:25:00,
2013-04-10 02:30:00,61.6,58.9,29.74,SE,133,1.0,2.0,91,0.00,,,0.00,0,Wunderground v.1.15,2013-04-10 07:30:00,
2013-04-10 02:35:00,61.6,58.9,29.74,SE,133,1.0,2.0,91,0.00,,,0.00,0,Wunderground v.1.15,2013-04-10 07:35:00,
2013-04-10 02:40:00,61.4,58.4,29.74,SE,133,1.0,1.0,90,0.00,,,0.00,0,Wunderground v.1.15,2013-04-10 07:40:00,
2013-04-10 02:50:00,61.1,57.8,29.74,SE,133,1.0,2.0,89,0.00,,,0.00,0,Wunderground v.1.15,2013-04-10 07:50:00,
2013-04-10 02:55:00,60.9,57.6,29.74,SE,133,1.0,2.0,89,0.00,,,0.00,0,Wunderground v.1.15,2013-04-10 07:55:00,
2013-04-10 03:00:00,60.5,57.2,29.73,SE,133,2.0,4.0,89,0.00,,,0.00,0,Wunderground v.1.15,2013-04-10 08:00:00,
2013-04-10 03:05:00,59.9,56.6,29.73,SE,129,3.0,6.0,89,0.00,,,0.00,0,Wunderground v.1.15,2013-04-10 08:05:00,
2013-04-10 03:10:00,59.3,56.1,29.73,ESE,116,4.0,4.0,89,0.00,,,0.00,0,Wunderground v.1.15,2013-04-10 08:10:00,
2013-04-10 03:15:00,58.7,55.5,29.73,ESE,111,4.0,5.0,89,0.00,,,0.00,0,Wunderground v.1.15,2013-04-10 08:15:00,
2013-04-10 03:25:00,57.8,54.9,29.73,ESE,103,5.0,5.0,90,0.00,,,0.00,0,Wunderground v.1.15,2013-04-10 08:25:00,
2013-04-10 03:30:00,57.5,54.6,29.73,East,94,5.0,5.0,90,0.00,,,0.00,0,Wunderground v.1.15,2013-04-10 08:30:00,
2013-04-10 03:35:00,57.2,54.3,29.72,East,94,5.0,5.0,90,0.00,,,0.00,0,Wunderground v.1.15,2013-04-10 08:35:00,
2013-04-10 03:40:00,57.0,54.1,29.72,East,94,5.0,6.0,90,0.00,,,0.00,0,Wunderground v.1.15,2013-04-10 08:40:00,
2013-04-10 03:45:00,56.9,54.3,29.71,East,89,5.0,7.0,91,0.00,,,0.00,0,Wunderground v.1.15,2013-04-10 08:45:00,
2013-04-10 03:55:00,56.7,54.1,29.71,East,85,5.0,6.0,91,0.00,,,0.00,0,Wunderground v.1.15,2013-04-10 08:55:00,
2013-04-10 04:00:00,56.6,54.0,29.71,East,85,4.0,5.0,91,0.00,,,0.00,0,Wunderground v.1.15,2013-04-10 09:00:00,
2013-04-10 04:05:00,56.5,53.9,29.70,East,83,5.0,5.0,91,0.00,,,0.00,0,Wunderground v.1.15,2013-04-10 09:05:00,
2013-04-10 04:10:00,56.4,53.8,29.71,East,81,6.0,6.0,91,0.00,,,0.00,0,Wunderground v.1.15,2013-04-10 09:10:00,
2013-04-10 04:15:00,56.3,53.7,29.70,East,80,6.0,6.0,91,0.00,,,0.00,0,Wunderground v.1.15,2013-04-10 09:15:00,
2013-04-10 04:20:00,56.2,53.6,29.70,East,80,6.0,7.0,91,0.00,,,0.00,0,Wunderground v.1.15,2013-04-10 09:20:00,
2013-04-10 04:30:00,56.0,53.4,29.70,East,80,5.0,5.0,91,0.00,,,0.00,0,Wunderground v.1.15,2013-04-10 09:30:00,
2013-04-10 04:35:00,55.9,53.3,29.70,East,80,5.0,5.0,91,0.00,,,0.00,0,Wunderground v.1.15,2013-04-10 09:35:00,
2013-04-10 04:40:00,55.8,53.5,29.69,ENE,78,6.0,6.0,92,0.00,,,0.00,0,Wunderground v.1.15,2013-04-10 09:40:00,
2013-04-10 04:45:00,55.8,53.5,29.70,ENE,78,6.0,6.0,92,0.00,,,0.00,0,Wunderground v.1.15,2013-04-10 09:45:00,
2013-04-10 04:50:00,55.7,53.4,29.70,ENE,78,5.0,6.0,92,0.00,,,0.00,0,Wunderground v.1.15,2013-04-10 09:50:00,
2013-04-10 05:00:00,55.7,53.4,29.70,ENE,78,5.0,5.0,92,0.00,,,0.00,0,Wunderground v.1.15,2013-04-10 10:00:00,
2013-04-10 05:05:00,55.8,53.5,29.73,NNW,331,5.0,12.0,92,0.00,,,0.00,0,Wunderground v.1.15,2013-04-10 10:05:00,
2013-04-10 05:10:00,55.3,52.4,29.72,WNW,303,7.0,16.0,90,0.00,,,0.00,0,Wunderground v.1.15,2013-04-10 10:10:00,
2013-04-10 05:15:00,54.4,50.6,29.73,NE,51,10.0,16.0,87,0.00,,,0.00,0,Wunderground v.1.15,2013-04-10 10:15:00,
2013-04-10 05:20:00,53.5,50.3,29.75,NNW,342,9.0,10.0,89,0.00,,,0.00,0,Wunderground v.1.15,2013-04-10 10:20:00,
2013-04-10 05:25:00,52.8,49.9,29.76,NNW,336,8.0,10.0,90,0.00,,,0.00,0,Wunderground v.1.15,2013-04-10 10:25:00,
2013-04-10 05:35:00,51.5,48.7,29.76,NNW,338,10.0,10.0,90,0.00,,,0.00,0,Wunderground v.1.15,2013-04-10 10:35:00,
2013-04-10 05:40:00,50.9,48.4,29.77,NNW,339,9.0,9.0,91,0.00,,,0.01,0,Wunderground v.1.15,2013-04-10 10:40:00,
2013-04-10 05:45:00,50.4,47.9,29.79,NNW,329,8.0,15.0,91,0.12,,,0.02,0,Wunderground v.1.15,2013-04-10 10:45:00,
2013-04-10 05:50:00,49.7,47.5,29.80,NNW,337,11.0,11.0,92,0.06,,,0.02,0,Wunderground v.1.15,2013-04-10 10:50:00,
2013-04-10 05:55:00,49.0,46.8,29.79,NNW,331,12.0,17.0,92,0.04,,,0.02,0,Wunderground v.1.15,2013-04-10 10:55:00,
2013-04-10 06:05:00,47.3,45.1,29.78,North,355,14.0,14.0,92,0.00,,,0.02,0,Wunderground v.1.15,2013-04-10 11:05:00,
2013-04-10 06:10:00,46.7,44.5,29.78,NNW,346,14.0,14.0,92,0.00,,,0.02,0,Wunderground v.1.15,2013-04-10 11:10:00,
2013-04-10 06:15:00,46.6,44.7,29.79,NNW,331,11.0,14.0,93,0.00,,,0.02,0,Wunderground v.1.15,2013-04-10 11:15:00,
2013-04-10 06:20:00,46.1,44.2,29.80,North,360,8.0,8.0,93,0.00,,,0.02,0,Wunderground v.1.15,2013-04-10 11:20:00,
2013-04-10 06:25:00,45.6,43.4,29.79,North,355,7.0,13.0,92,0.00,,,0.02,0,Wunderground v.1.15,2013-04-10 11:25:00,
2013-04-10 06:35:00,45.0,42.8,29.79,NE,44,8.0,9.0,92,0.00,,,0.02,0,Wunderground v.1.15,2013-04-10 11:35:00,
2013-04-10 06:40:00,44.9,42.7,29.78,ENE,59,9.0,9.0,92,0.00,,,0.02,0,Wunderground v.1.15,2013-04-10 11:40:00,
2013-04-10 06:45:00,44.8,42.6,29.79,ENE,63,9.0,15.0,92,0.00,,,0.02,5,Wunderground v.1.15,2013-04-10 11:45:00,
2013-04-10 06:50:00,44.9,42.7,29.79,ENE,67,9.0,10.0,92,0.00,,,0.02,9,Wunderground v.1.15,2013-04-10 11:50:00,
2013-04-10 06:55:00,44.8,42.6,29.78,ENE,60,8.0,11.0,92,0.00,,,0.02,11,Wunderground v.1.15,2013-04-10 11:55:00,
2013-04-10 07:00:00,44.8,42.3,29.78,NE,34,9.0,9.0,91,0.00,,,0.02,7,Wunderground v.1.15,2013-04-10 12:00:00,
2013-04-10 07:10:00,44.6,42.1,29.79,ENE,63,10.0,10.0,91,0.00,,,0.02,7,Wunderground v.1.15,2013-04-10 12:10:00,
2013-04-10 07:15:00,44.4,42.2,29.79,NNE,23,9.0,10.0,92,0.00,,,0.02,7,Wunderground v.1.15,2013-04-10 12:15:00,
2013-04-10 07:20:00,44.3,42.4,29.79,ENE,76,10.0,10.0,93,0.00,,,0.02,9,Wunderground v.1.15,2013-04-10 12:20:00,
2013-04-10 07:25:00,44.3,42.4,29.79,East,94,10.0,10.0,93,0.00,,,0.03,7,Wunderground v.1.15,2013-04-10 12:25:00,
2013-04-10 07:30:00,44.4,42.8,29.80,East,85,9.0,10.0,94,0.10,,,0.04,12,Wunderground v.1.15,2013-04-10 12:30:00,
2013-04-10 07:35:00,44.4,42.8,29.80,ENE,68,10.0,10.0,94,0.07,,,0.04,23,Wunderground v.1.15,2013-04-10 12:35:00,
2013-04-10 07:45:00,44.4,43.1,29.80,ENE,69,9.0,13.0,95,0.06,,,0.05,21,Wunderground v.1.15,2013-04-10 12:45:00,
2013-04-10 07:50:00,44.3,42.7,29.83,ENE,65,10.0,10.0,94,0.04,,,0.05,11,Wunderground v.1.15,2013-04-10 12:50:00,
2013-04-10 07:55:00,44.3,42.7,29.83,ENE,77,9.0,11.0,94,0.00,,,0.05,19,Wunderground v.1.15,2013-04-10 12:55:00,
2013-04-10 08:00:00,44.1,42.5,29.82,ENE,71,10.0,10.0,94,0.00,,,0.05,28,Wunderground v.1.15,2013-04-10 13:00:00,
2013-04-10 08:05:00,44.0,42.4,29.82,ENE,73,10.0,10.0,94,0.00,,,0.05,44,Wunderground v.1.15,2013-04-10 13:05:00,
2013-04-10 08:10:00,43.9,42.3,29.82,ENE,73,8.0,9.0,94,0.00,,,0.05,40,Wunderground v.1.15,2013-04-10 13:10:00,
2013-04-10 08:20:00,43.9,42.6,29.83,ENE,78,7.0,7.0,95,0.00,,,0.05,18,Wunderground v.1.15,2013-04-10 13:20:00,
2013-04-10 08:25:00,43.9,42.6,29.86,ESE,104,6.0,11.0,95,0.00,,,0.05,7,Wunderground v.1.15,2013-04-10 13:25:00,
2013-04-10 08:30:00,44.0,42.7,29.88,East,101,9.0,9.0,95,0.00,,,0.05,5,Wunderground v.1.15,2013-04-10 13:30:00,
2013-04-10 08:35:00,44.1,42.8,29.88,NNW,347,7.0,9.0,95,0.00,,,0.06,7,Wunderground v.1.15,2013-04-10 13:35:00,
2013-04-10 08:40:00,44.5,43.2,29.86,NW,326,10.0,10.0,95,0.00,,,0.06,16,Wunderground v.1.15,2013-04-10 13:40:00,
2013-04-10 08:50:00,44.4,43.1,29.84,NNW,336,10.0,10.0,95,0.00,,,0.06,35,Wunderground v.1.15,2013-04-10 13:50:00,
2013-04-10 08:55:00,44.4,43.1,29.84,NNW,331,8.0,10.0,95,0.00,,,0.06,56,Wunderground v.1.15,2013-04-10 13:55:00,
2013-04-10 09:00:00,44.4,43.1,29.85,North,360,6.0,6.0,95,0.00,,,0.06,32,Wunderground v.1.15,2013-04-10 14:00:00,
2013-04-10 09:05:00,44.2,42.9,29.85,East,98,5.0,10.0,95,0.00,,,0.06,53,Wunderground v.1.15,2013-04-10 14:05:00,
2013-04-10 09:10:00,44.2,42.9,29.85,East,99,8.0,12.0,95,0.00,,,0.06,56,Wunderground v.1.15,2013-04-10 14:10:00,
2013-04-10 09:15:00,44.2,42.9,29.86,ESE,112,12.0,12.0,95,0.00,,,0.06,28,Wunderground v.1.15,2013-04-10 14:15:00,
2013-04-10 09:25:00,44.2,42.9,29.84,ESE,107,14.0,16.0,95,0.00,,,0.06,51,Wunderground v.1.15,2013-04-10 14:25:00,
2013-04-10 09:30:00,44.2,42.9,29.83,ESE,107,14.0,14.0,95,0.00,,,0.06,42,Wunderground v.1.15,2013-04-10 14:30:00,
2013-04-10 09:35:00,44.3,43.0,29.81,ENE,77,13.0,14.0,95,0.00,,,0.06,56,Wunderground v.1.15,2013-04-10 14:35:00,
2013-04-10 09:40:00,44.2,42.9,29.78,ENE,71,11.0,11.0,95,0.00,,,0.06,65,Wunderground v.1.15,2013-04-10 14:40:00,
2013-04-10 09:45:00,44.2,42.9,29.77,ENE,78,10.0,11.0,95,0.00,,,0.06,53,Wunderground v.1.15,2013-04-10 14:45:00,
2013-04-10 09:55:00,44.2,42.9,29.77,ENE,66,9.0,10.0,95,0.00,,,0.06,51,Wunderground v.1.15,2013-04-10 14:55:00,
2013-04-10 10:00:00,44.2,42.9,29.76,ENE,62,8.0,8.0,95,0.00,,,0.06,77,Wunderground v.1.15,2013-04-10 15:00:00,
2013-04-10 10:05:00,44.4,43.3,29.75,ENE,74,7.0,8.0,96,0.00,,,0.06,135,Wunderground v.1.15,2013-04-10 15:05:00,
2013-04-10 10:10:00,44.7,43.6,29.79,East,90,8.0,8.0,96,0.00,,,0.06,151,Wunderground v.1.15,2013-04-10 15:10:00,
2013-04-10 10:15:00,45.1,44.0,29.83,SSE,153,10.0,14.0,96,0.00,,,0.06,81,Wunderground v.1.15,2013-04-10 15:15:00,
2013-04-10 10:20:00,45.6,44.5,29.83,SE,138,11.0,11.0,96,0.00,,,0.06,93,Wunderground v.1.15,2013-04-10 15:20:00,
2013-04-10 10:30:00,46.2,45.1,29.82,SE,140,11.0,11.0,96,0.00,,,0.06,125,Wunderground v.1.15,2013-04-10 15:30:00,
2013-04-10 10:35:00,46.5,45.4,29.83,SE,140,10.0,14.0,96,0.00,,,0.06,70,Wunderground v.1.15,2013-04-10 15:35:00,
2013-04-10 10:40:00,46.5,45.4,29.82,SE,132,10.0,12.0,96,0.00,,,0.06,63,Wunderground v.1.15,2013-04-10 15:40:00,
2013-04-10 10:45:00,46.6,45.5,29.84,SSE,163,10.0,12.0,96,0.00,,,0.06,42,Wunderground v.1.15,2013-04-10 15:45:00,
2013-04-10 10:50:00,46.6,45.5,29.86,SSE,161,10.0,10.0,96,0.00,,,0.06,33,Wunderground v.1.15,2013-04-10 15:50:00,
2013-04-10 11:00:00,46.8,45.7,29.88,SSE,161,10.0,10.0,96,0.00,,,0.06,26,Wunderground v.1.15,2013-04-10 16:00:00,
2013-04-10 11:10:00,46.9,45.8,29.89,South,184,6.0,10.0,96,0.00,,,0.07,18,Wunderground v.1.15,2013-04-10 16:10:00,
2013-04-10 11:15:00,47.0,45.9,29.88,SSE,162,6.0,10.0,96,0.31,,,0.09,30,Wunderground v.1.15,2013-04-10 16:15:00,
2013-04-10 11:20:00,47.1,46.0,29.86,SE,127,7.0,13.0,96,0.20,,,0.11,39,Wunderground v.1.15,2013-04-10 16:20:00,
2013-04-10 11:25:00,47.2,46.1,29.86,SE,136,10.0,15.0,96,0.17,,,0.12,46,Wunderground v.1.15,2013-04-10 16:25:00,
2013-04-10 11:30:00,47.4,46.3,29.86,SE,128,12.0,12.0,96,0.08,,,0.13,28,Wunderground v.1.15,2013-04-10 16:30:00,
2013-04-10 11:35:00,47.5,46.4,29.85,SE,128,11.0,12.0,96,0.08,,,0.13,25,Wunderground v.1.15,2013-04-10 16:35:00,
2013-04-10 11:40:00,47.5,46.4,29.85,ESE,118,8.0,8.0,96,0.08,,,0.14,42,Wunderground v.1.15,2013-04-10 16:40:00,
2013-04-10 11:45:00,47.6,46.5,29.86,ESE,105,6.0,8.0,96,0.07,,,0.14,42,Wunderground v.1.15,2013-04-10 16:45:00,
2013-04-10 11:55:00,47.8,46.7,29.82,NNW,338,3.0,5.0,96,0.11,,,0.16,47,Wunderground v.1.15,2013-04-10 16:55:00,
2013-04-10 12:00:00,47.9,46.8,29.78,NNW,348,3.0,11.0,96,0.14,,,0.17,49,Wunderground v.1.15,2013-04-10 17:00:00,
2013-04-10 12:05:00,48.0,46.9,29.72,NNE,17,5.0,11.0,96,0.12,,,0.18,51,Wunderground v.1.15,2013-04-10 17:05:00,
2013-04-10 12:10:00,48.1,47.3,29.75,NNW,342,8.0,12.0,97,0.08,,,0.18,67,Wunderground v.1.15,2013-04-10 17:10:00,
2013-04-10 12:15:00,48.2,47.1,29.78,NNW,336,9.0,12.0,96,0.05,,,0.18,69,Wunderground v.1.15,2013-04-10 17:15:00,
2013-04-10 12:20:00,48.3,47.5,29.80,North,355,7.0,7.0,97,0.00,,,0.18,121,Wunderground v.1.15,2013-04-10 17:20:00,
2013-04-10 12:25:00,48.3,47.5,29.79,North,351,5.0,7.0,97,0.00,,,0.18,176,Wunderground v.1.15,2013-04-10 17:25:00,
2013-04-10 12:30:00,48.4,47.6,29.81,NNE,17,4.0,4.0,97,0.00,,,0.18,132,Wunderground v.1.15,2013-04-10 17:30:00,
2013-04-10 12:40:00,48.5,47.7,29.83,East,84,4.0,6.0,97,0.00,,,0.18,125,Wunderground v.1.15,2013-04-10 17:40:00,
2013-04-10 12:45:00,48.6,47.8,29.84,SE,144,6.0,6.0,97,0.00,,,0.19,127,Wunderground v.1.15,2013-04-10 17:45:00,
2013-04-10 12:50:00,48.6,47.8,29.83,SE,144,6.0,6.0,97,0.00,,,0.19,171,Wunderground v.1.15,2013-04-10 17:50:00,
2013-04-10 12:55:00,48.7,47.9,29.82,SE,144,2.0,6.0,97,0.11,,,0.20,167,Wunderground v.1.15,2013-04-10 17:55:00,
2013-04-10 13:00:00,48.8,48.0,29.83,SE,144,0.0,0.0,97,0.06,,,0.20,116,Wunderground v.1.15,2013-04-10 18:00:00,
2013-04-10 13:05:00,48.8,48.0,29.83,SE,144,1.0,3.0,97,0.04,,,0.20,104,Wunderground v.1.15,2013-04-10 18:05:00,
2013-04-10 13:15:00,49.2,48.4,29.83,WNW,289,4.0,6.0,97,0.04,,,0.21,51,Wunderground v.1.15,2013-04-10 18:15:00,
2013-04-10 13:20:00,49.3,48.5,29.88,West,273,6.0,10.0,97,0.04,,,0.21,25,Wunderground v.1.15,2013-04-10 18:20:00,
2013-04-10 13:25:00,49.2,48.4,29.85,WNW,297,9.0,10.0,97,1.13,,,0.24,51,Wunderground v.1.15,2013-04-10 18:25:00,
2013-04-10 13:30:00,49.3,48.5,29.84,NW,309,9.0,10.0,97,0.25,,,0.30,91,Wunderground v.1.15,2013-04-10 18:30:00,
2013-04-10 13:35:00,49.4,48.6,29.83,NW,312,7.0,10.0,97,0.08,,,0.30,79,Wunderground v.1.15,2013-04-10 18:35:00,
2013-04-10 13:45:00,49.6,48.8,29.85,NW,315,4.0,5.0,97,0.06,,,0.31,100,Wunderground v.1.15,2013-04-10 18:45:00,
2013-04-10 13:50:00,49.7,48.9,29.85,NW,315,4.0,4.0,97,0.04,,,0.31,149,Wunderground v.1.15,2013-04-10 18:50:00,
2013-04-10 13:55:00,49.8,49.0,29.85,NW,318,4.0,5.0,97,0.00,,,0.31,165,Wunderground v.1.15,2013-04-10 18:55:00,
2013-04-10 14:00:00,50.1,49.3,29.85,NW,319,4.0,7.0,97,0.00,,,0.31,114,Wunderground v.1.15,2013-04-10 19:00:00,
2013-04-10 14:05:00,50.3,49.5,29.84,NNW,334,6.0,8.0,97,0.00,,,0.31,100,Wunderground v.1.15,2013-04-10 19:05:00,
2013-04-10 14:10:00,50.1,49.3,29.85,NW,325,6.0,9.0,97,0.00,,,0.31,86,Wunderground v.1.15,2013-04-10 19:10:00,
2013-04-10 14:20:00,49.9,49.1,29.85,NNW,342,6.0,7.0,97,0.00,,,0.31,151,Wunderground v.1.15,2013-04-10 19:20:00,
2013-04-10 14:25:00,49.7,48.9,29.82,North,350,7.0,7.0,97,0.00,,,0.31,223,Wunderground v.1.15,2013-04-10 19:25:00,
2013-04-10 14:30:00,49.6,48.8,29.83,North,349,7.0,7.0,97,0.00,,,0.31,185,Wunderground v.1.15,2013-04-10 19:30:00,
2013-04-10 14:35:00,49.6,48.8,29.82,North,5,7.0,10.0,97,0.00,,,0.32,176,Wunderground v.1.15,2013-04-10 19:35:00,
2013-04-10 14:45:00,49.3,48.5,29.81,NNW,337,8.0,10.0,97,0.00,,,0.32,128,Wunderground v.1.15,2013-04-10 19:45:00,
2013-04-10 14:50:00,49.2,48.4,29.80,NNE,19,7.0,7.0,97,0.00,,,0.32,146,Wunderground v.1.15,2013-04-10 19:50:00,
2013-04-10 14:55:00,49.2,48.4,29.80,North,355,5.0,10.0,97,0.00,,,0.32,146,Wunderground v.1.15,2013-04-10 19:55:00,
2013-04-10 15:00:00,49.2,48.4,29.79,NNE,16,5.0,5.0,97,0.00,,,0.32,151,Wunderground v.1.15,2013-04-10 20:00:00,
2013-04-10 15:10:00,48.8,48.0,29.80,NE,51,5.0,7.0,97,0.00,,,0.32,162,Wunderground v.1.15,2013-04-10 20:10:00,
2013-04-10 15:15:00,48.7,47.9,29.78,ENE,59,7.0,11.0,97,0.00,,,0.32,200,Wunderground v.1.15,2013-04-10 20:15:00,
2013-04-10 15:25:00,48.8,48.0,29.78,ENE,78,7.0,13.0,97,0.00,,,0.32,176,Wunderground v.1.15,2013-04-10 20:25:00,
2013-04-10 15:30:00,49.0,48.2,29.78,ENE,70,8.0,8.0,97,0.00,,,0.32,221,Wunderground v.1.15,2013-04-10 20:30:00,
2013-04-10 15:40:00,49.2,48.4,29.77,East,82,7.0,7.0,97,0.00,,,0.32,315,Wunderground v.1.15,2013-04-10 20:40:00,
2013-04-10 15:45:00,49.3,48.8,29.78,ENE,60,7.0,7.0,98,0.00,,,0.32,179,Wunderground v.1.15,2013-04-10 20:45:00,
2013-04-10 15:50:00,49.5,48.7,29.79,ENE,62,6.0,6.0,97,0.00,,,0.32,156,Wunderground v.1.15,2013-04-10 20:50:00,
2013-04-10 16:00:00,49.7,48.9,29.78,ENE,69,5.0,5.0,97,0.00,,,0.32,128,Wunderground v.1.15,2013-04-10 21:00:00,
2013-04-10 16:05:00,49.6,48.8,29.78,NE,42,5.0,6.0,97,0.00,,,0.32,144,Wunderground v.1.15,2013-04-10 21:05:00,
2013-04-10 16:10:00,49.5,48.7,29.78,ENE,64,5.0,10.0,97,0.00,,,0.32,137,Wunderground v.1.15,2013-04-10 21:10:00,
2013-04-10 16:15:00,49.5,48.7,29.79,ENE,67,6.0,10.0,97,0.00,,,0.32,123,Wunderground v.1.15,2013-04-10 21:15:00,
2013-04-10 16:20:00,49.5,48.7,29.79,NE,56,5.0,6.0,97,0.00,,,0.32,125,Wunderground v.1.15,2013-04-10 21:20:00,
2013-04-10 16:25:00,49.5,48.7,29.78,ENE,66,5.0,9.0,97,0.00,,,0.32,125,Wunderground v.1.15,2013-04-10 21:25:00,
2013-04-10 16:35:00,49.3,48.5,29.77,NE,40,5.0,5.0,97,0.00,,,0.32,102,Wunderground v.1.15,2013-04-10 21:35:00,
2013-04-10 16:40:00,49.0,48.2,29.77,NE,49,6.0,6.0,97,0.00,,,0.32,104,Wunderground v.1.15,2013-04-10 21:40:00,
2013-04-10 16:45:00,48.8,48.0,29.76,NE,50,7.0,7.0,97,0.00,,,0.32,83,Wunderground v.1.15,2013-04-10 21:45:00,
2013-04-10 16:50:00,48.8,48.0,29.76,NE,55,5.0,7.0,97,0.00,,,0.32,90,Wunderground v.1.15,2013-04-10 21:50:00,
2013-04-10 16:55:00,48.6,47.8,29.75,ENE,67,6.0,10.0,97,0.00,,,0.32,102,Wunderground v.1.15,2013-04-10 21:55:00,
2013-04-10 17:05:00,48.3,47.2,29.73,ENE,63,12.0,14.0,96,0.00,,,0.32,104,Wunderground v.1.15,2013-04-10 22:05:00,
2013-04-10 17:10:00,48.1,47.0,29.71,ENE,74,12.0,15.0,96,0.00,,,0.32,95,Wunderground v.1.15,2013-04-10 22:10:00,
2013-04-10 17:15:00,48.0,46.9,29.70,East,84,12.0,15.0,96,0.00,,,0.32,83,Wunderground v.1.15,2013-04-10 22:15:00,
2013-04-10 17:20:00,47.9,46.8,29.72,ENE,74,12.0,12.0,96,0.00,,,0.32,79,Wunderground v.1.15,2013-04-10 22:20:00,
2013-04-10 17:25:00,48.0,46.9,29.73,ENE,73,12.0,12.0,96,0.00,,,0.32,79,Wunderground v.1.15,2013-04-10 22:25:00,
2013-04-10 17:30:00,48.1,47.0,29.74,ENE,76,12.0,14.0,96,0.00,,,0.32,86,Wunderground v.1.15,2013-04-10 22:30:00,
2013-04-10 17:35:00,48.0,46.6,29.73,East,90,13.0,14.0,95,0.00,,,0.32,70,Wunderground v.1.15,2013-04-10 22:35:00,
2013-04-10 17:40:00,47.9,46.5,29.72,ENE,63,14.0,14.0,95,0.00,,,0.32,56,Wunderground v.1.15,2013-04-10 22:40:00,
2013-04-10 17:45:00,47.8,46.4,29.70,ENE,69,13.0,14.0,95,0.00,,,0.32,58,Wunderground v.1.15,2013-04-10 22:45:00,
2013-04-10 17:50:00,47.7,46.3,29.71,ENE,73,12.0,14.0,95,0.00,,,0.32,35,Wunderground v.1.15,2013-04-10 22:50:00,
2013-04-10 17:55:00,47.5,46.1,29.70,East,82,12.0,14.0,95,0.00,,,0.32,26,Wunderground v.1.15,2013-04-10 22:55:00,
2013-04-10 18:05:00,47.0,45.6,29.71,ENE,75,12.0,13.0,95,0.00,,,0.32,14,Wunderground v.1.15,2013-04-10 23:05:00,
2013-04-10 18:15:00,46.8,45.4,29.71,ENE,74,11.0,14.0,95,0.00,,,0.32,7,Wunderground v.1.15,2013-04-10 23:15:00,
2013-04-10 18:20:00,46.6,45.2,29.71,East,92,11.0,13.0,95,0.00,,,0.32,7,Wunderground v.1.15,2013-04-10 23:20:00,
2013-04-10 18:25:00,46.4,45.0,29.71,East,84,11.0,13.0,95,0.00,,,0.32,5,Wunderground v.1.15,2013-04-10 23:25:00,
2013-04-10 18:30:00,46.3,44.9,29.69,ENE,72,11.0,11.0,95,0.00,,,0.32,7,Wunderground v.1.15,2013-04-10 23:30:00,
2013-04-10 18:35:00,46.2,44.8,29.68,ENE,71,10.0,14.0,95,0.00,,,0.32,5,Wunderground v.1.15,2013-04-10 23:35:00,
2013-04-10 18:45:00,46.0,44.9,29.70,ENE,73,12.0,16.0,96,0.00,,,0.32,0,Wunderground v.1.15,2013-04-10 23:45:00,
2013-04-10 18:50:00,46.0,44.9,29.72,ENE,63,8.0,8.0,96,0.00,,,0.33,0,Wunderground v.1.15,2013-04-10 23:50:00,
2013-04-10 18:55:00,45.9,44.8,29.76,ENE,64,4.0,8.0,96,0.21,,,0.34,0,Wunderground v.1.15,2013-04-10 23:55:00,
2013-04-10 19:00:00,45.8,44.7,29.72,NE,49,3.0,8.0,96,3.16,,,0.44,0,Wunderground v.1.15,2013-04-11 00:00:00,
2013-04-10 19:05:00,45.7,44.6,29.69,North,5,4.0,8.0,96,0.42,,,0.49,0,Wunderground v.1.15,2013-04-11 00:05:00,
2013-04-10 19:10:00,45.6,44.5,29.72,ENE,57,4.0,5.0,96,0.19,,,0.51,0,Wunderground v.1.15,2013-04-11 00:10:00,
2013-04-10 19:20:00,45.4,44.3,29.77,NNW,347,4.0,4.0,96,1.54,,,0.59,0,Wunderground v.1.15,2013-04-11 00:20:00,
2013-04-10 19:25:00,45.4,44.3,29.75,North,351,4.0,4.0,96,1.46,,,0.67,0,Wunderground v.1.15,2013-04-11 00:25:00,
2013-04-10 19:30:00,45.4,44.3,29.75,ENE,72,3.0,4.0,96,1.87,,,0.78,0,Wunderground v.1.15,2013-04-11 00:30:00,
2013-04-10 19:35:00,45.3,44.2,29.76,ENE,76,3.0,6.0,96,0.26,,,0.83,0,Wunderground v.1.15,2013-04-11 00:35:00,
2013-04-10 19:40:00,45.2,44.1,29.76,ENE,71,4.0,5.0,96,0.78,,,0.87,0,Wunderground v.1.15,2013-04-11 00:40:00,
2013-04-10 19:50:00,45.1,44.0,29.72,ENE,71,6.0,7.0,96,0.76,,,0.99,0,Wunderground v.1.15,2013-04-11 00:50:00,
2013-04-10 19:55:00,45.1,44.3,29.74,NNE,31,7.0,9.0,97,0.45,,,1.03,0,Wunderground v.1.15,2013-04-11 00:55:00,
2013-04-10 20:00:00,45.1,44.3,29.74,NE,50,6.0,6.0,97,0.26,,,1.06,0,Wunderground v.1.15,2013-04-11 01:00:00,
2013-04-10 20:05:00,45.1,44.3,29.72,ENE,65,4.0,11.0,97,0.21,,,1.08,0,Wunderground v.1.15,2013-04-11 01:05:00,
2013-04-10 20:10:00,45.1,44.3,29.72,ENE,73,7.0,9.0,97,0.18,,,1.09,0,Wunderground v.1.15,2013-04-11 01:10:00,
2013-04-10 20:15:00,45.0,44.2,29.70,ENE,71,9.0,9.0,97,0.12,,,1.10,0,Wunderground v.1.15,2013-04-11 01:15:00,
2013-04-10 20:25:00,44.9,44.1,29.73,NE,53,8.0,9.0,97,0.07,,,1.12,0,Wunderground v.1.15,2013-04-11 01:25:00,
2013-04-10 20:30:00,44.9,44.1,29.73,ENE,69,8.0,8.0,97,0.07,,,1.12,0,Wunderground v.1.15,2013-04-11 01:30:00,
2013-04-10 20:35:00,44.9,44.1,29.74,ENE,75,9.0,9.0,97,0.06,,,1.12,0,Wunderground v.1.15,2013-04-11 01:35:00,
2013-04-10 20:40:00,44.9,44.1,29.74,East,90,8.0,8.0,97,0.05,,,1.13,0,Wunderground v.1.15,2013-04-11 01:40:00,
2013-04-10 20:45:00,44.9,44.1,29.73,ENE,61,8.0,10.0,97,0.17,,,1.15,0,Wunderground v.1.15,2013-04-11 01:45:00,
2013-04-10 20:55:00,44.7,43.9,29.75,ENE,78,9.0,13.0,97,0.22,,,1.18,0,Wunderground v.1.15,2013-04-11 01:55:00,
2013-04-10 21:00:00,44.7,43.9,29.75,ENE,77,9.0,13.0,97,0.25,,,1.20,0,Wunderground v.1.15,2013-04-11 02:00:00,
2013-04-10 21:05:00,44.6,43.8,29.74,ENE,72,10.0,13.0,97,0.19,,,1.22,0,Wunderground v.1.15,2013-04-11 02:05:00,
2013-04-10 21:10:00,44.6,43.8,29.74,East,84,10.0,13.0,97,0.14,,,1.24,0,Wunderground v.1.15,2013-04-11 02:10:00,
2013-04-10 21:15:00,44.6,43.8,29.75,East,82,9.0,13.0,97,0.16,,,1.25,0,Wunderground v.1.15,2013-04-11 02:15:00,
2013-04-10 21:20:00,44.6,43.8,29.76,East,100,9.0,12.0,97,0.14,,,1.26,0,Wunderground v.1.15,2013-04-11 02:20:00,
2013-04-10 21:30:00,44.7,43.9,29.75,East,85,9.0,13.0,97,0.22,,,1.29,0,Wunderground v.1.15,2013-04-11 02:30:00,
2013-04-10 21:35:00,44.7,43.9,29.73,East,79,10.0,13.0,97,0.16,,,1.31,0,Wunderground v.1.15,2013-04-11 02:35:00,
2013-04-10 21:40:00,44.8,44.0,29.72,East,88,10.0,11.0,97,0.13,,,1.32,0,Wunderground v.1.15,2013-04-11 02:40:00,
2013-04-10 21:45:00,45.0,44.2,29.72,East,86,9.0,11.0,97,0.11,,,1.33,0,Wunderground v.1.15,2013-04-11 02:45:00,
2013-04-10 21:50:00,45.0,44.2,29.72,East,90,9.0,9.0,97,0.13,,,1.34,0,Wunderground v.1.15,2013-04-11 02:50:00,
2013-04-10 22:00:00,45.4,44.6,29.72,East,97,10.0,12.0,97,0.25,,,1.37,0,Wunderground v.1.15,2013-04-11 03:00:00,
2013-04-10 22:05:00,45.5,44.7,29.71,East,82,12.0,12.0,97,0.16,,,1.39,0,Wunderground v.1.15,2013-04-11 03:05:00,
2013-04-10 22:10:00,45.6,44.8,29.69,East,88,11.0,11.0,97,0.16,,,1.40,0,Wunderground v.1.15,2013-04-11 03:10:00,
2013-04-10 22:15:00,45.7,44.9,29.69,East,84,11.0,11.0,97,0.13,,,1.41,0,Wunderground v.1.15,2013-04-11 03:15:00,
2013-04-10 22:20:00,45.7,44.9,29.68,East,79,11.0,11.0,97,0.08,,,1.41,0,Wunderground v.1.15,2013-04-11 03:20:00,
2013-04-10 22:25:00,45.8,45.0,29.69,East,94,10.0,11.0,97,0.05,,,1.42,0,Wunderground v.1.15,2013-04-11 03:25:00,
2013-04-10 22:35:00,45.9,45.1,29.69,East,87,11.0,11.0,97,0.05,,,1.42,0,Wunderground v.1.15,2013-04-11 03:35:00,
2013-04-10 22:40:00,46.0,45.2,29.69,East,89,10.0,10.0,97,0.04,,,1.42,0,Wunderground v.1.15,2013-04-11 03:40:00,
2013-04-10 22:45:00,46.1,45.3,29.68,East,82,10.0,10.0,97,0.00,,,1.42,0,Wunderground v.1.15,2013-04-11 03:45:00,
2013-04-10 22:50:00,46.2,45.4,29.68,East,82,10.0,10.0,97,0.00,,,1.42,0,Wunderground v.1.15,2013-04-11 03:50:00,
2013-04-10 22:55:00,46.3,45.8,29.68,East,80,9.0,10.0,98,0.00,,,1.42,0,Wunderground v.1.15,2013-04-11 03:55:00,
2013-04-10 23:00:00,46.3,45.8,29.68,East,90,10.0,10.0,98,0.00,,,1.42,0,Wunderground v.1.15,2013-04-11 04:00:00,
2013-04-10 23:05:00,46.4,45.9,29.67,East,96,11.0,13.0,98,0.00,,,1.42,0,Wunderground v.1.15,2013-04-11 04:05:00,
2013-04-10 23:10:00,46.4,45.6,29.67,East,101,11.0,18.0,97,0.00,,,1.42,0,Wunderground v.1.15,2013-04-11 04:10:00,
2013-04-10 23:15:00,46.4,45.6,29.65,East,81,12.0,18.0,97,0.00,,,1.42,0,Wunderground v.1.15,2013-04-11 04:15:00,
2013-04-10 23:20:00,46.4,45.6,29.63,East,94,12.0,15.0,97,0.00,,,1.42,0,Wunderground v.1.15,2013-04-11 04:20:00,
2013-04-10 23:25:00,46.5,45.7,29.64,East,93,12.0,15.0,97,0.00,,,1.42,0,Wunderground v.1.15,2013-04-11 04:25:00,
2013-04-10 23:30:00,46.5,45.7,29.65,East,98,13.0,14.0,97,0.00,,,1.42,0,Wunderground v.1.15,2013-04-11 04:30:00,
2013-04-10 23:40:00,46.6,45.8,29.64,East,88,15.0,16.0,97,0.00,,,1.42,0,Wunderground v.1.15,2013-04-11 04:40:00,
2013-04-10 23:45:00,46.6,45.8,29.64,East,98,16.0,20.0,97,0.00,,,1.42,0,Wunderground v.1.15,2013-04-11 04:45:00,
2013-04-10 23:50:00,46.6,45.8,29.63,East,83,16.0,17.0,97,0.00,,,1.42,0,Wunderground v.1.15,2013-04-11 04:50:00,
2013-04-10 23:55:00,46.7,45.9,29.63,East,95,16.0,17.0,97,0.00,,,1.42,0,Wunderground v.1.15,2013-04-11 04:55:00,